Time,TemperatureF,DewpointF,PressureIn,WindDirection,WindDirectionDegrees,WindSpeedMPH,WindSpeedGustMPH,Humidity,HourlyPrecipIn,Conditions,Clouds,dailyrainin,SoftwareType,DateUTC
2013-01-11 00:00:00,70.9,57.2,30.31,ESE,120,3.6,3.6,62,0.00,OVC,,0.00,WeatherDisplay:10.37,2013-01-11 05:00:00,
2013-01-11 00:01:00,70.5,57.3,30.31,ESE,122,4.0,4.0,63,0.00,SCT,,0.00,WeatherDisplay:10.37,2013-01-11 05:01:00,
2013-01-11 00:03:00,70.9,57.2,30.31,ESE,118,3.6,3.6,62,0.00,SCT,,0.00,WeatherDisplay:10.37,2013-01-11 05:03:00,
2013-01-11 00:08:00,70.5,56.9,30.31,ESE,106,3.4,3.4,62,0.00,SCT,,0.00,WeatherDisplay:10.37,2013-01-11 05:08:00,
2013-01-11 00:16:00,70.3,57.6,30.31,ESE,107,5.8,5.8,64,0.00,SCT,,0.00,WeatherDisplay:10.37,2013-01-11 05:16:00,
2013-01-11 00:21:00,70.2,57.4,30.31,ESE,109,5.8,5.8,64,0.00,SCT,,0.00,WeatherDisplay:10.37,2013-01-11 05:21:00,
2013-01-11 00:31:00,70.0,57.2,30.31,SE,127,3.4,3.4,64,0.00,SCT,,0.00,WeatherDisplay:10.37,2013-01-11 05:31:00,
2013-01-11 00:36:00,69.8,57.5,30.31,SE,129,5.8,5.8,65,0.00,SCT,,0.00,WeatherDisplay:10.37,2013-01-11 05:36:00,
2013-01-11 00:46:00,69.6,58.2,30.27,ESE,107,3.4,3.4,67,0.00,SCT,,0.00,WeatherDisplay:10.37,2013-01-11 05:46:00,
2013-01-11 00:51:00,69.4,58.0,30.27,ESE,118,3.4,0.0,67,0.00,SCT,,0.00,WeatherDisplay:10.37,2013-01-11 05:51:00,
2013-01-11 01:00:00,69.3,58.2,30.27,ESE,111,3.4,3.4,68,0.00,SCT,,0.00,WeatherDisplay:10.37,2013-01-11 06:00:00,
2013-01-11 01:01:00,69.1,58.5,30.27,ESE,104,2.7,2.7,69,0.00,CLR,,0.00,WeatherDisplay:10.37,2013-01-11 06:01:00,
2013-01-11 01:05:00,69.3,58.2,30.27,ESE,105,3.4,3.4,68,0.00,CLR,,0.00,WeatherDisplay:10.37,2013-01-11 06:05:00,
2013-01-11 01:10:00,69.1,58.5,30.27,SE,140,2.7,0.0,69,0.00,CLR,,0.00,WeatherDisplay:10.37,2013-01-11 06:10:00,
2013-01-11 01:16:00,68.9,58.3,30.27,ESE,112,2.7,2.7,69,0.00,CLR,,0.00,WeatherDisplay:10.37,2013-01-11 06:16:00,
2013-01-11 01:21:00,68.9,58.3,30.27,SE,132,2.7,2.7,69,0.00,CLR,,0.00,WeatherDisplay:10.37,2013-01-11 06:21:00,
2013-01-11 01:31:00,68.7,58.5,30.27,SE,129,0.0,0.0,70,0.00,CLR,,0.00,WeatherDisplay:10.37,2013-01-11 06:31:00,
2013-01-11 01:36:00,68.5,58.4,30.27,SE,129,0.0,0.0,70,0.00,CLR,,0.00,WeatherDisplay:10.37,2013-01-11 06:36:00,
2013-01-11 01:46:00,68.2,58.0,30.27,East,89,0.0,0.0,70,0.00,CLR,,0.00,WeatherDisplay:10.37,2013-01-11 06:46:00,
2013-01-11 01:51:00,68.0,57.8,30.27,East,89,0.0,0.0,70,0.00,CLR,,0.00,WeatherDisplay:10.37,2013-01-11 06:51:00,
2013-01-11 02:00:00,67.8,58.1,30.27,East,89,0.0,0.0,71,0.00,CLR,,0.00,WeatherDisplay:10.37,2013-01-11 07:00:00,
2013-01-11 02:01:00,67.5,57.7,30.25,East,95,3.4,3.4,71,0.00,CLR,,0.00,WeatherDisplay:10.37,2013-01-11 07:01:00,
2013-01-11 02:05:00,67.6,57.9,30.27,East,89,0.0,0.0,71,0.00,CLR,,0.00,WeatherDisplay:10.37,2013-01-11 07:05:00,
2013-01-11 02:10:00,67.5,57.7,30.25,East,95,3.1,0.0,71,0.00,CLR,,0.00,WeatherDisplay:10.37,2013-01-11 07:10:00,
2013-01-11 02:16:00,67.3,57.6,30.25,East,95,0.0,0.0,71,0.00,CLR,,0.00,WeatherDisplay:10.37,2013-01-11 07:16:00,
2013-01-11 02:21:00,67.1,57.4,30.25,East,95,0.0,0.0,71,0.00,CLR,,0.00,WeatherDisplay:10.37,2013-01-11 07:21:00,
2013-01-11 02:31:00,66.7,57.0,30.25,East,95,0.0,0.0,71,0.00,CLR,,0.00,WeatherDisplay:10.37,2013-01-11 07:31:00,
2013-01-11 02:36:00,66.6,57.3,30.25,East,95,0.0,0.0,72,0.00,CLR,,0.00,WeatherDisplay:10.37,2013-01-11 07:36:00,
2013-01-11 02:46:00,66.6,57.3,30.25,East,95,0.0,0.0,72,0.00,CLR,,0.00,WeatherDisplay:10.37,2013-01-11 07:46:00,
2013-01-11 02:51:00,66.6,57.6,30.25,East,95,0.0,0.0,73,0.00,CLR,,0.00,WeatherDisplay:10.37,2013-01-11 07:51:00,
2013-01-11 03:00:00,66.6,58.0,30.25,East,95,0.0,0.0,74,0.00,CLR,,0.00,WeatherDisplay:10.37,2013-01-11 08:00:00,
2013-01-11 03:01:00,66.7,58.9,30.25,South,186,0.0,0.0,76,0.00,CLR,,0.00,WeatherDisplay:10.37,2013-01-11 08:01:00,
2013-01-11 03:05:00,66.6,58.4,30.25,East,95,0.0,0.0,75,0.00,CLR,,0.00,WeatherDisplay:10.37,2013-01-11 08:05:00,
2013-01-11 03:10:00,66.7,58.9,30.25,SSE,147,0.0,0.0,76,0.00,CLR,,0.00,WeatherDisplay:10.37,2013-01-11 08:10:00,
2013-01-11 03:16:00,66.7,59.3,30.25,East,90,0.0,0.0,77,0.00,CLR,,0.00,WeatherDisplay:10.37,2013-01-11 08:16:00,
2013-01-11 03:21:00,66.7,59.3,30.25,East,90,0.0,0.0,77,0.00,CLR,,0.00,WeatherDisplay:10.37,2013-01-11 08:21:00,
2013-01-11 03:31:00,66.7,59.3,30.25,ENE,59,3.4,3.4,77,0.00,CLR,,0.00,WeatherDisplay:10.37,2013-01-11 08:31:00,
2013-01-11 03:36:00,66.7,59.3,30.25,ESE,108,2.3,0.0,77,0.00,CLR,,0.00,WeatherDisplay:10.37,2013-01-11 08:36:00,
2013-01-11 03:46:00,66.7,59.7,30.22,ESE,120,0.0,0.0,78,0.00,CLR,,0.00,WeatherDisplay:10.37,2013-01-11 08:46:00,
2013-01-11 03:51:00,66.7,59.7,30.22,SE,133,3.4,0.0,78,0.00,CLR,,0.00,WeatherDisplay:10.37,2013-01-11 08:51:00,
2013-01-11 04:00:00,66.7,60.0,30.22,ESE,117,0.0,0.0,79,0.00,CLR,,0.00,WeatherDisplay:10.37,2013-01-11 09:00:00,
2013-01-11 04:01:00,66.7,60.4,30.19,SE,128,3.4,0.0,80,0.00,CLR,,0.00,WeatherDisplay:10.37,2013-01-11 09:01:00,
2013-01-11 04:05:00,66.9,60.2,30.22,SE,128,0.0,0.0,79,0.00,CLR,,0.00,WeatherDisplay:10.37,2013-01-11 09:05:00,
2013-01-11 04:10:00,66.7,60.4,30.19,SE,128,3.4,0.0,80,0.00,CLR,,0.00,WeatherDisplay:10.37,2013-01-11 09:10:00,
2013-01-11 04:16:00,66.7,60.4,30.19,ESE,110,2.3,0.0,80,0.00,CLR,,0.00,WeatherDisplay:10.37,2013-01-11 09:16:00,
2013-01-11 04:21:00,66.7,60.4,30.19,ESE,114,0.0,0.0,80,0.00,CLR,,0.00,WeatherDisplay:10.37,2013-01-11 09:21:00,
2013-01-11 04:31:00,66.9,60.9,30.22,ESE,108,2.3,0.0,81,0.00,CLR,,0.00,WeatherDisplay:10.37,2013-01-11 09:31:00,
2013-01-11 04:36:00,67.1,61.1,30.22,East,89,2.3,0.0,81,0.00,CLR,,0.00,WeatherDisplay:10.37,2013-01-11 09:36:00,
2013-01-11 04:46:00,67.3,61.2,30.22,ENE,74,0.0,0.0,81,0.00,CLR,,0.00,WeatherDisplay:10.37,2013-01-11 09:46:00,
2013-01-11 04:51:00,67.3,61.2,30.22,ENE,74,0.0,0.0,81,0.00,CLR,,0.00,WeatherDisplay:10.37,2013-01-11 09:51:00,
2013-01-11 05:00:00,67.1,61.1,30.22,East,101,0.0,0.0,81,0.00,CLR,,0.00,WeatherDisplay:10.37,2013-01-11 10:00:00,
2013-01-11 05:01:00,67.1,61.4,30.22,East,101,0.0,0.0,82,0.00,CLR,,0.00,WeatherDisplay:10.37,2013-01-11 10:01:00,
2013-01-11 05:05:00,67.1,61.1,30.22,East,101,0.0,0.0,81,0.00,CLR,,0.00,WeatherDisplay:10.37,2013-01-11 10:05:00,
2013-01-11 05:10:00,67.1,61.4,30.22,East,101,0.0,0.0,82,0.00,CLR,,0.00,WeatherDisplay:10.37,2013-01-11 10:10:00,
2013-01-11 05:16:00,67.3,61.6,30.22,East,101,0.0,0.0,82,0.00,CLR,,0.00,WeatherDisplay:10.37,2013-01-11 10:16:00,
2013-01-11 05:21:00,67.3,61.6,30.22,East,101,0.0,0.0,82,0.00,CLR,,0.00,WeatherDisplay:10.37,2013-01-11 10:21:00,
2013-01-11 05:31:00,67.3,61.6,30.22,East,101,0.0,0.0,82,0.00,CLR,,0.00,WeatherDisplay:10.37,2013-01-11 10:31:00,
2013-01-11 05:36:00,67.5,61.8,30.22,East,101,0.0,0.0,82,0.00,CLR,,0.00,WeatherDisplay:10.37,2013-01-11 10:36:00,
2013-01-11 05:46:00,67.5,61.8,30.22,East,101,0.0,0.0,82,0.00,CLR,,0.00,WeatherDisplay:10.37,2013-01-11 10:46:00,
2013-01-11 05:51:00,67.5,61.8,30.22,East,101,0.0,0.0,82,0.00,CLR,,0.00,WeatherDisplay:10.37,2013-01-11 10:51:00,
2013-01-11 06:00:00,67.5,61.8,30.19,East,101,0.0,0.0,82,0.00,CLR,,0.00,WeatherDisplay:10.37,2013-01-11 11:00:00,
2013-01-11 06:01:00,67.6,61.9,30.22,East,101,0.0,0.0,82,0.00,OVC,,0.00,WeatherDisplay:10.37,2013-01-11 11:01:00,
2013-01-11 06:05:00,67.6,61.9,30.19,East,101,0.0,0.0,82,0.00,OVC,,0.00,WeatherDisplay:10.37,2013-01-11 11:05:00,
2013-01-11 06:10:00,67.6,61.9,30.22,East,101,0.0,0.0,82,0.00,OVC,,0.00,WeatherDisplay:10.37,2013-01-11 11:10:00,
2013-01-11 06:16:00,67.5,61.8,30.22,East,101,0.0,0.0,82,0.00,OVC,,0.00,WeatherDisplay:10.37,2013-01-11 11:16:00,
2013-01-11 06:21:00,67.5,61.8,30.22,East,101,0.0,0.0,82,0.00,OVC,,0.00,WeatherDisplay:10.37,2013-01-11 11:21:00,
2013-01-11 06:31:00,67.1,61.4,30.19,ESE,117,0.0,0.0,82,0.00,OVC,,0.00,WeatherDisplay:10.37,2013-01-11 11:31:00,
2013-01-11 06:36:00,67.1,61.4,30.19,East,96,0.0,0.0,82,0.00,OVC,,0.00,WeatherDisplay:10.37,2013-01-11 11:36:00,
2013-01-11 06:46:00,67.3,61.9,30.19,SE,125,4.0,4.0,83,0.00,OVC,,0.00,WeatherDisplay:10.37,2013-01-11 11:46:00,
2013-01-11 06:51:00,67.5,62.1,30.19,ESE,122,0.0,0.0,83,0.00,OVC,,0.00,WeatherDisplay:10.37,2013-01-11 11:51:00,
2013-01-11 07:00:00,67.5,62.1,30.22,ESE,122,0.0,0.0,83,0.00,OVC,,0.00,WeatherDisplay:10.37,2013-01-11 12:00:00,
2013-01-11 07:01:00,67.6,62.6,30.22,ESE,122,0.0,0.0,84,0.00,FEW,,0.00,WeatherDisplay:10.37,2013-01-11 12:01:00,
2013-01-11 07:05:00,67.5,62.1,30.22,ESE,122,0.0,0.0,83,0.00,FEW,,0.00,WeatherDisplay:10.37,2013-01-11 12:05:00,
2013-01-11 07:10:00,67.5,62.5,30.22,ESE,122,0.0,0.0,84,0.00,FEW,,0.00,WeatherDisplay:10.37,2013-01-11 12:10:00,
2013-01-11 07:16:00,67.6,62.6,30.22,ESE,122,0.0,0.0,84,0.00,FEW,,0.00,WeatherDisplay:10.37,2013-01-11 12:16:00,
2013-01-11 07:21:00,67.6,62.6,30.22,ESE,122,0.0,0.0,84,0.00,FEW,,0.00,WeatherDisplay:10.37,2013-01-11 12:21:00,
2013-01-11 07:31:00,67.6,62.6,30.22,ESE,122,0.0,0.0,84,0.00,FEW,,0.00,WeatherDisplay:10.37,2013-01-11 12:31:00,
2013-01-11 07:36:00,67.8,62.8,30.22,ESE,122,0.0,0.0,84,0.00,FEW,,0.00,WeatherDisplay:10.37,2013-01-11 12:36:00,
2013-01-11 07:46:00,68.0,63.0,30.22,ESE,122,0.0,0.0,84,0.00,FEW,,0.00,WeatherDisplay:10.37,2013-01-11 12:46:00,
2013-01-11 07:51:00,68.2,63.2,30.22,ESE,122,0.0,0.0,84,0.00,FEW,,0.00,WeatherDisplay:10.37,2013-01-11 12:51:00,
2013-01-11 08:00:00,68.7,64.0,30.22,ESE,122,0.0,0.0,85,0.00,FEW,,0.00,WeatherDisplay:10.37,2013-01-11 13:00:00,
2013-01-11 08:01:00,69.4,64.7,30.25,ESE,122,0.0,0.0,85,0.00,OVC,,0.00,WeatherDisplay:10.37,2013-01-11 13:01:00,
2013-01-11 08:05:00,69.1,64.4,30.22,ESE,122,0.0,0.0,85,0.00,OVC,,0.00,WeatherDisplay:10.37,2013-01-11 13:05:00,
2013-01-11 08:10:00,69.4,64.7,30.25,ESE,122,0.0,0.0,85,0.00,OVC,,0.00,WeatherDisplay:10.37,2013-01-11 13:10:00,
2013-01-11 08:16:00,69.8,65.1,30.25,ESE,122,2.7,0.0,85,0.00,OVC,,0.00,WeatherDisplay:10.37,2013-01-11 13:16:00,
2013-01-11 08:21:00,70.2,65.4,30.25,ESE,122,3.4,0.0,85,0.00,OVC,,0.00,WeatherDisplay:10.37,2013-01-11 13:21:00,
2013-01-11 08:31:00,70.3,65.6,30.25,ESE,115,3.4,3.4,85,0.00,OVC,,0.00,WeatherDisplay:10.37,2013-01-11 13:31:00,
2013-01-11 08:36:00,70.5,65.8,30.25,East,91,2.7,0.0,85,0.00,OVC,,0.00,WeatherDisplay:10.37,2013-01-11 13:36:00,
2013-01-11 08:46:00,71.2,66.8,30.22,SE,124,0.0,0.0,86,0.00,OVC,,0.00,WeatherDisplay:10.37,2013-01-11 13:46:00,
2013-01-11 08:51:00,71.8,67.4,30.22,ESE,102,3.4,0.0,86,0.00,OVC,,0.00,WeatherDisplay:10.37,2013-01-11 13:51:00,
2013-01-11 09:00:00,72.5,68.1,30.25,ESE,115,4.0,4.0,86,0.00,OVC,,0.00,WeatherDisplay:10.37,2013-01-11 14:00:00,
2013-01-11 09:01:00,73.0,68.6,30.25,ESE,121,3.4,0.0,86,0.00,BKN,,0.00,WeatherDisplay:10.37,2013-01-11 14:01:00,
2013-01-11 09:05:00,72.7,68.2,30.25,East,101,4.0,4.0,86,0.00,BKN,,0.00,WeatherDisplay:10.37,2013-01-11 14:05:00,
2013-01-11 09:10:00,72.9,68.4,30.25,ENE,71,2.3,0.0,86,0.00,BKN,,0.00,WeatherDisplay:10.37,2013-01-11 14:10:00,
2013-01-11 09:16:00,73.4,69.0,30.25,SE,127,4.6,4.6,86,0.00,BKN,,0.00,WeatherDisplay:10.37,2013-01-11 14:16:00,
2013-01-11 09:21:00,73.8,69.3,30.25,East,89,3.6,3.6,86,0.00,BKN,,0.00,WeatherDisplay:10.37,2013-01-11 14:21:00,
2013-01-11 09:31:00,74.3,69.5,30.25,ESE,119,5.8,5.8,85,0.00,BKN,,0.00,WeatherDisplay:10.37,2013-01-11 14:31:00,
2013-01-11 09:36:00,74.7,69.8,30.25,ESE,116,3.6,3.6,85,0.00,BKN,,0.00,WeatherDisplay:10.37,2013-01-11 14:36:00,
2013-01-11 09:46:00,75.7,69.9,30.25,ESE,113,5.8,5.8,82,0.00,BKN,,0.00,WeatherDisplay:10.37,2013-01-11 14:46:00,
2013-01-11 09:51:00,76.5,68.7,30.25,ESE,113,5.8,5.8,77,0.00,BKN,,0.00,WeatherDisplay:10.37,2013-01-11 14:51:00,
2013-01-11 10:00:00,77.7,64.1,30.25,SSE,150,10.5,10.5,63,0.00,BKN,,0.00,WeatherDisplay:10.37,2013-01-11 15:00:00,
2013-01-11 10:01:00,79.2,58.9,30.25,SSE,150,10.3,10.3,50,0.00,CLR,,0.00,WeatherDisplay:10.37,2013-01-11 15:01:00,
2013-01-11 10:05:00,78.4,59.9,30.25,SSE,155,9.2,9.2,53,0.00,CLR,,0.00,WeatherDisplay:10.37,2013-01-11 15:05:00,
2013-01-11 10:10:00,79.0,58.8,30.25,SE,132,10.3,10.3,50,0.00,CLR,,0.00,WeatherDisplay:10.37,2013-01-11 15:10:00,
2013-01-11 10:16:00,79.5,60.4,30.25,East,92,8.1,8.1,52,0.00,CLR,,0.00,WeatherDisplay:10.37,2013-01-11 15:16:00,
2013-01-11 10:21:00,79.7,60.5,30.25,ESE,114,9.2,9.2,52,0.00,CLR,,0.00,WeatherDisplay:10.37,2013-01-11 15:21:00,
2013-01-11 10:31:00,79.9,60.1,30.25,SE,129,6.3,6.3,51,0.00,CLR,,0.00,WeatherDisplay:10.37,2013-01-11 15:31:00,
2013-01-11 10:36:00,80.1,60.3,30.25,South,169,8.1,8.1,51,0.00,CLR,,0.00,WeatherDisplay:10.37,2013-01-11 15:36:00,
2013-01-11 10:46:00,80.4,58.3,30.25,SW,221,8.1,8.1,47,0.00,CLR,,0.00,WeatherDisplay:10.37,2013-01-11 15:46:00,
2013-01-11 10:51:00,80.8,58.1,30.25,East,87,5.8,5.8,46,0.00,CLR,,0.00,WeatherDisplay:10.37,2013-01-11 15:51:00,
2013-01-11 11:00:00,81.1,57.8,30.25,East,84,10.3,10.3,45,0.00,CLR,,0.00,WeatherDisplay:10.37,2013-01-11 16:00:00,
2013-01-11 11:01:00,82.0,58.0,30.25,SSE,168,8.1,8.1,44,0.00,CLR,,0.00,WeatherDisplay:10.37,2013-01-11 16:01:00,
2013-01-11 11:05:00,81.5,57.5,30.25,South,184,5.8,5.8,44,0.00,CLR,,0.00,WeatherDisplay:10.37,2013-01-11 16:05:00,
2013-01-11 11:10:00,82.0,57.3,30.25,SSE,154,8.1,8.1,43,0.00,CLR,,0.00,WeatherDisplay:10.37,2013-01-11 16:10:00,
2013-01-11 11:16:00,82.2,57.5,30.25,SE,127,5.8,5.8,43,0.00,CLR,,0.00,WeatherDisplay:10.37,2013-01-11 16:16:00,
2013-01-11 11:21:00,82.4,57.0,30.25,SSW,209,10.9,10.9,42,0.00,CLR,,0.00,WeatherDisplay:10.37,2013-01-11 16:21:00,
2013-01-11 11:31:00,82.2,56.2,30.25,SSE,164,10.5,10.5,41,0.00,CLR,,0.00,WeatherDisplay:10.37,2013-01-11 16:31:00,
2013-01-11 11:36:00,82.4,57.0,30.25,East,83,5.8,5.8,42,0.00,CLR,,0.00,WeatherDisplay:10.37,2013-01-11 16:36:00,
2013-01-11 11:46:00,82.9,55.4,30.22,ESE,107,9.2,9.2,39,0.00,CLR,,0.00,WeatherDisplay:10.37,2013-01-11 16:46:00,
2013-01-11 11:51:00,83.1,56.3,30.22,ENE,61,9.2,9.2,40,0.00,CLR,,0.00,WeatherDisplay:10.37,2013-01-11 16:51:00,
2013-01-11 12:00:00,83.5,53.7,30.22,SSE,167,10.5,10.5,36,0.00,CLR,,0.00,WeatherDisplay:10.37,2013-01-11 17:00:00,
2013-01-11 12:01:00,83.3,54.3,30.22,East,93,6.9,6.9,37,0.00,CLR,,0.00,WeatherDisplay:10.37,2013-01-11 17:01:00,
2013-01-11 12:05:00,83.3,52.8,30.22,SSE,147,10.5,10.5,35,0.00,CLR,,0.00,WeatherDisplay:10.37,2013-01-11 17:05:00,
2013-01-11 12:10:00,83.3,54.3,30.22,ESE,113,8.0,8.0,37,0.00,CLR,,0.00,WeatherDisplay:10.37,2013-01-11 17:10:00,
2013-01-11 12:16:00,82.9,53.2,30.22,SE,126,8.1,8.1,36,0.00,CLR,,0.00,WeatherDisplay:10.37,2013-01-11 17:16:00,
2013-01-11 12:21:00,83.1,54.1,30.22,SE,142,10.3,10.3,37,0.00,CLR,,0.00,WeatherDisplay:10.37,2013-01-11 17:21:00,
2013-01-11 12:31:00,83.3,55.0,30.22,East,87,8.3,8.3,38,0.00,CLR,,0.00,WeatherDisplay:10.37,2013-01-11 17:31:00,
2013-01-11 12:36:00,83.5,53.7,30.22,ENE,78,8.1,8.1,36,0.00,CLR,,0.00,WeatherDisplay:10.37,2013-01-11 17:36:00,
2013-01-11 12:46:00,84.2,53.6,30.22,NE,42,8.1,8.1,35,0.00,CLR,,0.00,WeatherDisplay:10.37,2013-01-11 17:46:00,
2013-01-11 12:51:00,84.6,53.1,30.22,SSE,161,6.3,6.3,34,0.00,CLR,,0.00,WeatherDisplay:10.37,2013-01-11 17:51:00,
2013-01-11 13:00:00,84.6,53.1,30.19,SSE,159,11.5,11.5,34,0.00,CLR,,0.00,WeatherDisplay:10.37,2013-01-11 18:00:00,
2013-01-11 13:01:00,84.6,52.3,30.19,ESE,113,5.8,5.8,33,0.00,CLR,,0.00,WeatherDisplay:10.37,2013-01-11 18:01:00,
2013-01-11 13:05:00,84.7,53.3,30.19,SSE,154,8.1,8.1,34,0.00,CLR,,0.00,WeatherDisplay:10.37,2013-01-11 18:05:00,
2013-01-11 13:10:00,84.7,52.4,30.19,SSE,153,12.6,12.6,33,0.00,CLR,,0.00,WeatherDisplay:10.37,2013-01-11 18:10:00,
2013-01-11 13:16:00,84.6,52.3,30.19,SE,135,8.1,8.1,33,0.00,CLR,,0.00,WeatherDisplay:10.37,2013-01-11 18:16:00,
2013-01-11 13:21:00,84.6,52.3,30.19,NE,46,5.8,5.8,33,0.00,CLR,,0.00,WeatherDisplay:10.37,2013-01-11 18:21:00,
2013-01-11 13:31:00,85.1,52.8,30.19,SE,138,9.2,9.2,33,0.00,CLR,,0.00,WeatherDisplay:10.37,2013-01-11 18:31:00,
2013-01-11 13:36:00,85.3,52.1,30.19,SSE,164,5.8,5.8,32,0.00,CLR,,0.00,WeatherDisplay:10.37,2013-01-11 18:36:00,
2013-01-11 13:46:00,85.6,52.4,30.19,SE,145,8.3,8.3,32,0.00,CLR,,0.00,WeatherDisplay:10.37,2013-01-11 18:46:00,
2013-01-11 13:51:00,85.3,51.2,30.19,SE,145,5.8,5.8,31,0.00,CLR,,0.00,WeatherDisplay:10.37,2013-01-11 18:51:00,
2013-01-11 14:00:00,85.8,52.5,30.19,SSW,194,6.9,6.9,32,0.00,CLR,,0.00,WeatherDisplay:10.37,2013-01-11 19:00:00,
2013-01-11 14:01:00,87.1,51.9,30.19,SW,223,8.3,8.3,30,0.00,FEW,,0.00,WeatherDisplay:10.37,2013-01-11 19:01:00,
2013-01-11 14:05:00,86.7,51.6,30.19,SE,130,5.8,5.8,30,0.00,FEW,,0.00,WeatherDisplay:10.37,2013-01-11 19:05:00,
2013-01-11 14:10:00,87.1,51.9,30.19,East,88,8.1,8.1,30,0.00,FEW,,0.00,WeatherDisplay:10.37,2013-01-11 19:10:00,
2013-01-11 14:16:00,87.3,52.0,30.19,SSE,153,4.0,4.0,30,0.00,FEW,,0.00,WeatherDisplay:10.37,2013-01-11 19:16:00,
2013-01-11 14:21:00,87.4,51.3,30.19,East,85,8.0,8.0,29,0.00,FEW,,0.00,WeatherDisplay:10.37,2013-01-11 19:21:00,
2013-01-11 14:31:00,87.1,51.0,30.19,East,94,5.8,5.8,29,0.00,FEW,,0.00,WeatherDisplay:10.37,2013-01-11 19:31:00,
2013-01-11 14:36:00,87.6,52.4,30.19,NNE,33,5.8,5.8,30,0.00,FEW,,0.00,WeatherDisplay:10.37,2013-01-11 19:36:00,
2013-01-11 14:46:00,88.2,51.9,30.19,SSE,168,5.8,5.8,29,0.00,FEW,,0.00,WeatherDisplay:10.37,2013-01-11 19:46:00,
2013-01-11 14:51:00,88.0,50.8,30.19,ESE,113,8.1,8.1,28,0.00,FEW,,0.00,WeatherDisplay:10.37,2013-01-11 19:51:00,
2013-01-11 15:00:00,87.4,50.3,30.19,SSE,152,6.3,6.3,28,0.00,FEW,,0.00,WeatherDisplay:10.37,2013-01-11 20:00:00,
2013-01-11 15:01:00,86.0,51.8,30.19,WSW,251,3.4,3.4,31,0.00,CLR,,0.00,WeatherDisplay:10.37,2013-01-11 20:01:00,
2013-01-11 15:05:00,86.7,49.7,30.19,ESE,102,5.8,5.8,28,0.00,CLR,,0.00,WeatherDisplay:10.37,2013-01-11 20:05:00,
2013-01-11 15:10:00,86.2,52.0,30.19,WSW,238,3.6,3.6,31,0.00,CLR,,0.00,WeatherDisplay:10.37,2013-01-11 20:10:00,
2013-01-11 15:16:00,85.8,52.5,30.19,South,189,3.6,3.6,32,0.00,CLR,,0.00,WeatherDisplay:10.37,2013-01-11 20:16:00,
2013-01-11 15:21:00,86.2,52.0,30.19,WSW,250,5.8,5.8,31,0.00,CLR,,0.00,WeatherDisplay:10.37,2013-01-11 20:21:00,
2013-01-11 15:31:00,86.4,51.3,30.19,SSW,204,4.9,4.9,30,0.00,CLR,,0.00,WeatherDisplay:10.37,2013-01-11 20:31:00,
2013-01-11 15:36:00,86.9,51.7,30.19,SW,233,5.8,5.8,30,0.00,CLR,,0.00,WeatherDisplay:10.37,2013-01-11 20:36:00,
2013-01-11 15:46:00,86.2,51.1,30.19,SW,227,6.3,6.3,30,0.00,CLR,,0.00,WeatherDisplay:10.37,2013-01-11 20:46:00,
2013-01-11 15:51:00,86.5,52.3,30.19,SSE,158,4.9,4.9,31,0.00,CLR,,0.00,WeatherDisplay:10.37,2013-01-11 20:51:00,
2013-01-11 16:00:00,86.4,51.3,30.19,SSW,209,4.9,4.9,30,0.00,CLR,,0.00,WeatherDisplay:10.37,2013-01-11 21:00:00,
2013-01-11 16:01:00,84.9,50.9,30.19,SW,234,5.8,5.8,31,0.00,CLR,,0.00,WeatherDisplay:10.37,2013-01-11 21:01:00,
2013-01-11 16:05:00,85.5,51.4,30.19,West,264,5.8,5.8,31,0.00,CLR,,0.00,WeatherDisplay:10.37,2013-01-11 21:05:00,
2013-01-11 16:10:00,84.9,50.0,30.19,WSW,239,3.6,4.5,30,0.00,CLR,,0.00,WeatherDisplay:10.37,2013-01-11 21:10:00,
2013-01-11 16:16:00,83.8,50.8,30.19,WSW,256,8.3,8.3,32,0.00,CLR,,0.00,WeatherDisplay:10.37,2013-01-11 21:16:00,
2013-01-11 16:21:00,83.7,51.5,30.19,SSW,210,5.8,5.8,33,0.00,CLR,,0.00,WeatherDisplay:10.37,2013-01-11 21:21:00,
2013-01-11 16:31:00,83.3,52.8,30.19,South,184,3.6,3.6,35,0.00,CLR,,0.00,WeatherDisplay:10.37,2013-01-11 21:31:00,
2013-01-11 16:36:00,82.9,52.5,30.19,SSE,155,5.8,5.8,35,0.00,CLR,,0.00,WeatherDisplay:10.37,2013-01-11 21:36:00,
2013-01-11 16:46:00,81.5,52.7,30.19,SSW,195,5.8,5.8,37,0.00,CLR,,0.00,WeatherDisplay:10.37,2013-01-11 21:46:00,
2013-01-11 16:51:00,80.6,53.4,30.19,SW,214,5.8,5.8,39,0.00,CLR,,0.00,WeatherDisplay:10.37,2013-01-11 21:51:00,
2013-01-11 17:00:00,79.7,53.9,30.19,SW,224,8.3,8.3,41,0.00,CLR,,0.00,WeatherDisplay:10.37,2013-01-11 22:00:00,
2013-01-11 17:01:00,78.8,53.8,30.16,South,176,5.8,5.8,42,0.00,CLR,,0.00,WeatherDisplay:10.37,2013-01-11 22:01:00,
2013-01-11 17:05:00,79.2,54.1,30.19,SE,139,5.8,5.8,42,0.00,CLR,,0.00,WeatherDisplay:10.37,2013-01-11 22:05:00,
2013-01-11 17:10:00,78.8,53.8,30.16,South,190,5.8,5.8,42,0.00,CLR,,0.00,WeatherDisplay:10.37,2013-01-11 22:10:00,
2013-01-11 17:16:00,78.6,53.6,30.16,SW,216,4.0,4.0,42,0.00,CLR,,0.00,WeatherDisplay:10.37,2013-01-11 22:16:00,
2013-01-11 17:21:00,78.3,53.9,30.16,SE,145,4.9,4.9,43,0.00,CLR,,0.00,WeatherDisplay:10.37,2013-01-11 22:21:00,
2013-01-11 17:31:00,77.5,53.9,30.16,SSW,204,5.8,5.8,44,0.00,CLR,,0.00,WeatherDisplay:10.37,2013-01-11 22:31:00,
2013-01-11 17:36:00,77.2,54.2,30.16,SSW,197,5.8,5.8,45,0.00,CLR,,0.00,WeatherDisplay:10.37,2013-01-11 22:36:00,
2013-01-11 17:46:00,76.5,54.1,30.16,SSE,166,5.8,5.8,46,0.00,CLR,,0.00,WeatherDisplay:10.37,2013-01-11 22:46:00,
2013-01-11 17:51:00,76.1,53.2,30.16,SW,226,3.4,3.4,45,0.00,CLR,,0.00,WeatherDisplay:10.37,2013-01-11 22:51:00,
2013-01-11 18:00:00,75.6,53.3,30.19,SW,220,2.7,0.0,46,0.00,CLR,,0.00,WeatherDisplay:10.37,2013-01-11 23:00:00,
2013-01-11 18:01:00,75.0,52.8,30.19,West,265,0.0,0.0,46,0.00,FEW,,0.00,WeatherDisplay:10.37,2013-01-11 23:01:00,
2013-01-11 18:05:00,75.4,53.2,30.19,SW,220,0.0,0.0,46,0.00,FEW,,0.00,WeatherDisplay:10.37,2013-01-11 23:05:00,
2013-01-11 18:10:00,75.0,52.8,30.19,West,265,0.0,0.0,46,0.00,FEW,,0.00,WeatherDisplay:10.37,2013-01-11 23:10:00,
2013-01-11 18:16:00,74.8,52.7,30.19,West,265,0.0,0.0,46,0.00,FEW,,0.00,WeatherDisplay:10.37,2013-01-11 23:16:00,
2013-01-11 18:21:00,74.8,54.4,30.19,West,262,3.4,0.0,49,0.00,FEW,,0.00,WeatherDisplay:10.37,2013-01-11 23:21:00,
2013-01-11 18:31:00,74.5,54.6,30.19,West,271,2.3,0.0,50,0.00,FEW,,0.00,WeatherDisplay:10.37,2013-01-11 23:31:00,
2013-01-11 18:36:00,74.3,54.5,30.19,West,271,2.7,0.0,50,0.00,FEW,,0.00,WeatherDisplay:10.37,2013-01-11 23:36:00,
2013-01-11 18:46:00,74.3,53.9,30.19,West,271,2.3,0.0,49,0.00,FEW,,0.00,WeatherDisplay:10.37,2013-01-11 23:46:00,
2013-01-11 18:51:00,74.3,54.5,30.19,West,271,2.3,0.0,50,0.00,FEW,,0.00,WeatherDisplay:10.37,2013-01-11 23:51:00,
2013-01-11 19:00:00,73.8,54.0,30.19,West,271,0.0,0.0,50,0.00,FEW,,0.00,WeatherDisplay:10.37,2013-01-12 00:00:00,
2013-01-11 19:01:00,72.9,53.7,30.19,SSE,148,2.3,2.3,51,0.00,SCT,,0.00,WeatherDisplay:10.37,2013-01-12 00:01:00,
2013-01-11 19:05:00,73.4,53.6,30.19,SSE,148,2.3,0.0,50,0.00,SCT,,0.00,WeatherDisplay:10.37,2013-01-12 00:05:00,
2013-01-11 19:10:00,72.9,53.7,30.19,SSE,148,2.7,0.0,51,0.00,SCT,,0.00,WeatherDisplay:10.37,2013-01-12 00:10:00,
2013-01-11 19:16:00,72.5,53.9,30.19,SSE,148,2.3,2.3,52,0.00,SCT,,0.00,WeatherDisplay:10.37,2013-01-12 00:16:00,
2013-01-11 19:21:00,72.3,54.2,30.19,SSE,148,2.3,0.0,53,0.00,SCT,,0.00,WeatherDisplay:10.37,2013-01-12 00:21:00,
2013-01-11 19:31:00,72.0,54.9,30.19,SSE,163,0.0,0.0,55,0.00,SCT,,0.00,WeatherDisplay:10.37,2013-01-12 00:31:00,
2013-01-11 19:36:00,72.0,54.9,30.19,East,100,0.0,0.0,55,0.00,SCT,,0.00,WeatherDisplay:10.37,2013-01-12 00:36:00,
2013-01-11 19:46:00,71.8,55.2,30.19,SE,143,3.4,3.4,56,0.00,SCT,,0.00,WeatherDisplay:10.37,2013-01-12 00:46:00,
2013-01-11 19:51:00,71.8,55.2,30.19,SE,143,2.3,0.0,56,0.00,SCT,,0.00,WeatherDisplay:10.37,2013-01-12 00:51:00,
2013-01-11 20:00:00,71.6,54.6,30.19,ESE,122,3.4,3.4,55,0.00,SCT,,0.00,WeatherDisplay:10.37,2013-01-12 01:00:00,
2013-01-11 20:01:00,71.6,54.1,30.19,SE,127,2.3,0.0,54,0.00,CLR,,0.00,WeatherDisplay:10.37,2013-01-12 01:01:00,
2013-01-11 20:05:00,71.6,54.1,30.19,SE,135,2.3,0.0,54,0.00,CLR,,0.00,WeatherDisplay:10.37,2013-01-12 01:05:00,
2013-01-11 20:10:00,71.6,54.1,30.19,SE,127,2.3,0.0,54,0.00,CLR,,0.00,WeatherDisplay:10.37,2013-01-12 01:10:00,
2013-01-11 20:16:00,71.6,54.1,30.19,ESE,107,3.4,3.4,54,0.00,CLR,,0.00,WeatherDisplay:10.37,2013-01-12 01:16:00,
2013-01-11 20:21:00,71.6,54.1,30.19,SE,127,2.3,0.0,54,0.00,CLR,,0.00,WeatherDisplay:10.37,2013-01-12 01:21:00,
2013-01-11 20:31:00,71.8,54.7,30.19,ENE,71,0.0,0.0,55,0.00,CLR,,0.00,WeatherDisplay:10.37,2013-01-12 01:31:00,
2013-01-11 20:36:00,71.8,54.7,30.19,ENE,71,0.0,0.0,55,0.00,CLR,,0.00,WeatherDisplay:10.37,2013-01-12 01:36:00,
2013-01-11 20:46:00,71.6,54.6,30.19,ENE,71,0.0,0.0,55,0.00,CLR,,0.00,WeatherDisplay:10.37,2013-01-12 01:46:00,
2013-01-11 20:51:00,71.4,54.9,30.19,ENE,71,0.0,0.0,56,0.00,CLR,,0.00,WeatherDisplay:10.37,2013-01-12 01:51:00,
2013-01-11 21:00:00,71.2,55.2,30.19,ENE,71,0.0,0.0,57,0.00,CLR,,0.00,WeatherDisplay:10.37,2013-01-12 02:00:00,
2013-01-11 21:01:00,71.2,55.7,30.19,ENE,71,0.0,0.0,58,0.00,FEW,,0.00,WeatherDisplay:10.37,2013-01-12 02:01:00,
2013-01-11 21:05:00,71.2,55.2,30.19,ENE,71,0.0,0.0,57,0.00,FEW,,0.00,WeatherDisplay:10.37,2013-01-12 02:05:00,
2013-01-11 21:10:00,71.2,55.7,30.19,ENE,71,0.0,0.0,58,0.00,FEW,,0.00,WeatherDisplay:10.37,2013-01-12 02:10:00,
2013-01-11 21:16:00,71.4,56.3,30.19,ENE,71,0.0,0.0,59,0.00,FEW,,0.00,WeatherDisplay:10.37,2013-01-12 02:16:00,
2013-01-11 21:21:00,71.8,57.1,30.19,East,90,0.0,0.0,60,0.00,FEW,,0.00,WeatherDisplay:10.37,2013-01-12 02:21:00,
2013-01-11 21:31:00,72.3,58.6,30.19,East,89,0.0,0.0,62,0.00,FEW,,0.00,WeatherDisplay:10.37,2013-01-12 02:31:00,
2013-01-11 21:36:00,72.5,58.7,30.19,East,97,2.3,2.3,62,0.00,FEW,,0.00,WeatherDisplay:10.37,2013-01-12 02:36:00,
2013-01-11 21:46:00,72.7,59.8,30.19,SE,124,3.4,3.4,64,0.00,FEW,,0.00,WeatherDisplay:10.37,2013-01-12 02:46:00,
2013-01-11 21:51:00,72.7,59.8,30.19,ESE,105,3.6,0.0,64,0.00,FEW,,0.00,WeatherDisplay:10.37,2013-01-12 02:51:00,
2013-01-11 22:00:00,72.9,60.4,30.19,East,100,2.3,0.0,65,0.00,FEW,,0.00,WeatherDisplay:10.37,2013-01-12 03:00:00,
2013-01-11 22:01:00,72.7,61.1,30.19,East,90,2.7,0.0,67,0.00,OVC,,0.00,WeatherDisplay:10.37,2013-01-12 03:01:00,
2013-01-11 22:05:00,72.9,60.8,30.19,ESE,105,3.4,3.4,66,0.00,OVC,,0.00,WeatherDisplay:10.37,2013-01-12 03:05:00,
2013-01-11 22:10:00,72.7,60.7,30.19,ESE,112,3.4,3.4,66,0.00,OVC,,0.00,WeatherDisplay:10.37,2013-01-12 03:10:00,
2013-01-11 22:16:00,72.7,61.1,30.19,ESE,109,5.8,5.8,67,0.00,OVC,,0.00,WeatherDisplay:10.37,2013-01-12 03:16:00,
2013-01-11 22:21:00,72.5,60.9,30.19,East,97,3.4,3.4,67,0.00,OVC,,0.00,WeatherDisplay:10.37,2013-01-12 03:21:00,
2013-01-11 22:31:00,72.1,61.0,30.19,East,93,2.3,0.0,68,0.00,OVC,,0.00,WeatherDisplay:10.37,2013-01-12 03:31:00,
2013-01-11 22:36:00,72.0,60.8,30.19,ESE,115,2.3,2.3,68,0.00,OVC,,0.00,WeatherDisplay:10.37,2013-01-12 03:36:00,
2013-01-11 22:46:00,71.6,60.9,30.19,ESE,114,3.6,3.6,69,0.00,OVC,,0.00,WeatherDisplay:10.37,2013-01-12 03:46:00,
2013-01-11 22:51:00,71.6,60.9,30.19,ESE,118,2.7,0.0,69,0.00,OVC,,0.00,WeatherDisplay:10.37,2013-01-12 03:51:00,
2013-01-11 23:00:00,71.2,61.0,30.19,ESE,102,0.0,0.0,70,0.00,OVC,,0.00,WeatherDisplay:10.37,2013-01-12 04:00:00,
2013-01-11 23:01:00,71.1,61.2,30.19,ESE,103,2.7,2.7,71,0.00,CLR,,0.00,WeatherDisplay:10.37,2013-01-12 04:01:00,
2013-01-11 23:05:00,71.2,61.0,30.19,East,100,2.7,0.0,70,0.00,CLR,,0.00,WeatherDisplay:10.37,2013-01-12 04:05:00,
2013-01-11 23:10:00,71.1,61.2,30.19,ESE,113,2.7,2.7,71,0.00,CLR,,0.00,WeatherDisplay:10.37,2013-01-12 04:10:00,
2013-01-11 23:16:00,71.1,61.2,30.19,ESE,110,3.6,3.6,71,0.00,CLR,,0.00,WeatherDisplay:10.37,2013-01-12 04:16:00,
2013-01-11 23:21:00,71.1,61.2,30.19,ESE,113,3.4,0.0,71,0.00,CLR,,0.00,WeatherDisplay:10.37,2013-01-12 04:21:00,
2013-01-11 23:31:00,71.1,61.6,30.22,ESE,105,3.4,3.4,72,0.00,CLR,,0.00,WeatherDisplay:10.37,2013-01-12 04:31:00,
2013-01-11 23:36:00,71.1,61.6,30.22,East,99,3.6,3.6,72,0.00,CLR,,0.00,WeatherDisplay:10.37,2013-01-12 04:36:00,
2013-01-11 23:46:00,70.9,61.8,30.22,SE,124,2.7,2.7,73,0.00,CLR,,0.00,WeatherDisplay:10.37,2013-01-12 04:46:00,
2013-01-11 23:51:00,70.9,61.8,30.22,SE,130,0.0,0.0,73,0.00,CLR,,0.00,WeatherDisplay:10.37,2013-01-12 04:51:00,